Year,Month,Day,Hour,Minute,Value (Times are PST for temperature in C)
2016,10,11,00,00,3.40
2016,10,11,00,01,3.40
2016,10,11,00,02,3.40
2016,10,11,00,03,3.40
2016,10,11,00,04,3.40
2016,10,11,00,05,3.40
2016,10,11,00,06,3.40
2016,10,11,00,07,3.50
2016,10,11,00,08,3.50
2016,10,11,00,09,3.60
2016,10,11,00,10,3.60
2016,10,11,00,11,3.60
2016,10,11,00,12,3.60
2016,10,11,00,13,3.60
2016,10,11,00,14,3.60
2016,10,11,00,15,3.60
2016,10,11,00,16,3.60
2016,10,11,00,17,3.60
2016,10,11,00,18,3.60
2016,10,11,00,19,3.60
2016,10,11,00,20,3.60
2016,10,11,00,21,3.60
2016,10,11,00,22,3.60
2016,10,11,00,23,3.50
2016,10,11,00,24,3.50
2016,10,11,00,25,3.40
2016,10,11,00,26,3.40
2016,10,11,00,27,3.50
2016,10,11,00,28,3.50
2016,10,11,00,29,3.60
2016,10,11,00,30,3.60
2016,10,11,00,31,3.50
2016,10,11,00,32,3.50
2016,10,11,00,33,3.40
2016,10,11,00,34,3.40
2016,10,11,00,35,3.30
2016,10,11,00,36,3.30
2016,10,11,00,37,3.30
2016,10,11,00,38,3.20
2016,10,11,00,39,3.30
2016,10,11,00,40,3.30
2016,10,11,00,41,3.30
2016,10,11,00,42,3.30
2016,10,11,00,43,3.30
2016,10,11,00,44,3.30
2016,10,11,00,45,3.30
2016,10,11,00,46,3.50
2016,10,11,00,47,3.60
2016,10,11,00,48,3.80
2016,10,11,00,49,4.00
2016,10,11,00,50,4.10
2016,10,11,00,51,4.20
2016,10,11,00,52,4.30
2016,10,11,00,53,4.40
2016,10,11,00,54,4.40
2016,10,11,00,55,4.40
2016,10,11,00,56,4.30
2016,10,11,00,57,4.30
2016,10,11,00,58,4.30
2016,10,11,00,59,4.20
2016,10,11,01,00,4.10
2016,10,11,01,01,4.00
2016,10,11,01,02,3.90
2016,10,11,01,03,3.80
2016,10,11,01,04,3.70
2016,10,11,01,05,3.60
2016,10,11,01,06,3.50
2016,10,11,01,07,3.50
2016,10,11,01,08,3.50
2016,10,11,01,09,3.40
2016,10,11,01,10,3.40
2016,10,11,01,11,3.40
2016,10,11,01,12,3.40
2016,10,11,01,13,3.30
2016,10,11,01,14,3.30
2016,10,11,01,15,3.30
2016,10,11,01,16,3.30
2016,10,11,01,17,3.40
2016,10,11,01,18,3.40
2016,10,11,01,19,3.40
2016,10,11,01,20,3.40
2016,10,11,01,21,3.40
2016,10,11,01,22,3.40
2016,10,11,01,23,3.30
2016,10,11,01,24,3.30
2016,10,11,01,25,3.30
2016,10,11,01,26,3.20
2016,10,11,01,27,3.20
2016,10,11,01,28,3.20
2016,10,11,01,29,3.20
2016,10,11,01,30,3.10
2016,10,11,01,31,3.10
2016,10,11,01,32,3.10
2016,10,11,01,33,3.10
2016,10,11,01,34,3.10
2016,10,11,01,35,3.10
2016,10,11,01,36,3.10
2016,10,11,01,37,3.10
2016,10,11,01,38,3.10
2016,10,11,01,39,3.10
2016,10,11,01,40,3.10
2016,10,11,01,41,3.10
2016,10,11,01,42,3.10
2016,10,11,01,43,3.10
2016,10,11,01,44,3.10
2016,10,11,01,45,3.10
2016,10,11,01,46,3.00
2016,10,11,01,47,3.00
2016,10,11,01,48,3.00
2016,10,11,01,49,3.00
2016,10,11,01,50,3.00
2016,10,11,01,51,3.10
2016,10,11,01,52,3.10
2016,10,11,01,53,3.10
2016,10,11,01,54,3.10
2016,10,11,01,55,3.10
2016,10,11,01,56,3.10
2016,10,11,01,57,3.20
2016,10,11,01,58,3.20
2016,10,11,01,59,3.20
2016,10,11,02,00,3.20
2016,10,11,02,01,3.10
2016,10,11,02,02,3.00
2016,10,11,02,03,2.90
2016,10,11,02,04,2.90
2016,10,11,02,05,2.80
2016,10,11,02,06,2.80
2016,10,11,02,07,2.80
2016,10,11,02,08,2.80
2016,10,11,02,09,2.70
2016,10,11,02,10,2.70
2016,10,11,02,11,2.70
2016,10,11,02,12,2.70
2016,10,11,02,13,2.70
2016,10,11,02,14,2.70
2016,10,11,02,15,2.70
2016,10,11,02,16,2.70
2016,10,11,02,17,2.70
2016,10,11,02,18,2.70
2016,10,11,02,19,2.70
2016,10,11,02,20,2.60
2016,10,11,02,21,2.60
2016,10,11,02,22,2.60
2016,10,11,02,23,2.60
2016,10,11,02,24,2.60
2016,10,11,02,25,2.60
2016,10,11,02,26,2.60
2016,10,11,02,27,2.60
2016,10,11,02,28,2.60
2016,10,11,02,29,2.60
2016,10,11,02,30,2.60
2016,10,11,02,31,2.60
2016,10,11,02,32,2.60
2016,10,11,02,33,2.50
2016,10,11,02,34,2.50
2016,10,11,02,35,2.50
2016,10,11,02,36,2.40
2016,10,11,02,37,2.40
2016,10,11,02,38,2.40
2016,10,11,02,39,2.40
2016,10,11,02,40,2.40
2016,10,11,02,41,2.40
2016,10,11,02,42,2.40
2016,10,11,02,43,2.40
2016,10,11,02,44,2.40
2016,10,11,02,45,2.40
2016,10,11,02,46,2.40
2016,10,11,02,47,2.40
2016,10,11,02,48,2.30
2016,10,11,02,49,2.30
2016,10,11,02,50,2.30
2016,10,11,02,51,2.30
2016,10,11,02,52,2.30
2016,10,11,02,53,2.30
2016,10,11,02,54,2.30
2016,10,11,02,55,2.20
2016,10,11,02,56,2.30
2016,10,11,02,57,2.30
2016,10,11,02,58,2.30
2016,10,11,02,59,2.30
2016,10,11,03,00,2.30
2016,10,11,03,01,2.30
2016,10,11,03,02,2.30
2016,10,11,03,03,2.30
2016,10,11,03,04,2.30
2016,10,11,03,05,2.30
2016,10,11,03,06,2.30
2016,10,11,03,07,2.30
2016,10,11,03,08,2.30
2016,10,11,03,09,2.30
2016,10,11,03,10,2.20
2016,10,11,03,11,2.20
2016,10,11,03,12,2.20
2016,10,11,03,13,2.20
2016,10,11,03,14,2.20
2016,10,11,03,15,2.20
2016,10,11,03,16,2.30
2016,10,11,03,17,2.30
2016,10,11,03,18,2.30
2016,10,11,03,19,2.40
2016,10,11,03,20,2.50
2016,10,11,03,21,2.60
2016,10,11,03,22,2.60
2016,10,11,03,23,2.60
2016,10,11,03,24,2.60
2016,10,11,03,25,2.60
2016,10,11,03,26,2.50
2016,10,11,03,27,2.40
2016,10,11,03,28,2.40
2016,10,11,03,29,2.30
2016,10,11,03,30,2.30
2016,10,11,03,31,2.30
2016,10,11,03,32,2.30
2016,10,11,03,33,2.20
2016,10,11,03,34,2.20
2016,10,11,03,35,2.10
2016,10,11,03,36,2.10
2016,10,11,03,37,2.10
2016,10,11,03,38,2.10
2016,10,11,03,39,2.10
2016,10,11,03,40,2.10
2016,10,11,03,41,2.10
2016,10,11,03,42,2.10
2016,10,11,03,43,2.10
2016,10,11,03,44,2.10
2016,10,11,03,45,2.10
2016,10,11,03,46,2.10
2016,10,11,03,47,2.20
2016,10,11,03,48,2.20
2016,10,11,03,49,2.30
2016,10,11,03,50,2.30
2016,10,11,03,51,2.30
2016,10,11,03,52,2.30
2016,10,11,03,53,2.30
2016,10,11,03,54,2.30
2016,10,11,03,55,2.30
2016,10,11,03,56,2.20
2016,10,11,03,57,2.20
2016,10,11,03,58,2.10
2016,10,11,03,59,2.00
2016,10,11,04,00,2.00
2016,10,11,04,01,1.90
2016,10,11,04,02,1.90
2016,10,11,04,03,1.90
2016,10,11,04,04,1.90
2016,10,11,04,05,1.90
2016,10,11,04,06,1.90
2016,10,11,04,07,1.90
2016,10,11,04,08,1.90
2016,10,11,04,09,1.90
2016,10,11,04,10,1.80
2016,10,11,04,11,1.80
2016,10,11,04,12,1.80
2016,10,11,04,13,1.70
2016,10,11,04,14,1.70
2016,10,11,04,15,1.70
2016,10,11,04,16,1.70
2016,10,11,04,17,1.80
2016,10,11,04,18,1.80
2016,10,11,04,19,1.90
2016,10,11,04,20,2.00
2016,10,11,04,21,2.10
2016,10,11,04,22,2.10
2016,10,11,04,23,2.20
2016,10,11,04,24,2.30
2016,10,11,04,25,2.30
2016,10,11,04,26,2.30
2016,10,11,04,27,2.30
2016,10,11,04,28,2.30
2016,10,11,04,29,2.30
2016,10,11,04,30,2.30
2016,10,11,04,31,2.40
2016,10,11,04,32,2.40
2016,10,11,04,33,2.30
2016,10,11,04,34,2.30
2016,10,11,04,35,2.20
2016,10,11,04,36,2.10
2016,10,11,04,37,2.00
2016,10,11,04,38,1.90
2016,10,11,04,39,1.90
2016,10,11,04,40,1.90
2016,10,11,04,41,1.80
2016,10,11,04,42,1.80
2016,10,11,04,43,1.80
2016,10,11,04,44,1.90
2016,10,11,04,45,1.90
2016,10,11,04,46,1.90
2016,10,11,04,47,1.90
2016,10,11,04,48,1.90
2016,10,11,04,49,1.90
2016,10,11,04,50,1.90
2016,10,11,04,51,1.80
2016,10,11,04,52,1.80
2016,10,11,04,53,1.80
2016,10,11,04,54,1.80
2016,10,11,04,55,1.80
2016,10,11,04,56,1.80
2016,10,11,04,57,1.80
2016,10,11,04,58,1.80
2016,10,11,04,59,1.80
2016,10,11,05,00,1.90
2016,10,11,05,01,1.90
2016,10,11,05,02,2.00
2016,10,11,05,03,2.10
2016,10,11,05,04,2.20
2016,10,11,05,05,2.20
2016,10,11,05,06,2.10
2016,10,11,05,07,2.00
2016,10,11,05,08,1.90
2016,10,11,05,09,1.90
2016,10,11,05,10,1.80
2016,10,11,05,11,1.80
2016,10,11,05,12,1.80
2016,10,11,05,13,1.80
2016,10,11,05,14,1.80
2016,10,11,05,15,1.90
2016,10,11,05,16,1.90
2016,10,11,05,17,1.90
2016,10,11,05,18,1.90
2016,10,11,05,19,1.90
2016,10,11,05,20,1.90
2016,10,11,05,21,1.90
2016,10,11,05,22,1.90
2016,10,11,05,23,1.90
2016,10,11,05,24,1.90
2016,10,11,05,25,1.90
2016,10,11,05,26,1.90
2016,10,11,05,27,1.90
2016,10,11,05,28,1.90
2016,10,11,05,29,1.90
2016,10,11,05,30,1.80
2016,10,11,05,31,1.80
2016,10,11,05,32,1.80
2016,10,11,05,33,1.70
2016,10,11,05,34,1.70
2016,10,11,05,35,1.70
2016,10,11,05,36,1.70
2016,10,11,05,37,1.60
2016,10,11,05,38,1.50
2016,10,11,05,39,1.50
2016,10,11,05,40,1.50
2016,10,11,05,41,1.50
2016,10,11,05,42,1.50
2016,10,11,05,43,1.60
2016,10,11,05,44,1.60
2016,10,11,05,45,1.60
2016,10,11,05,46,1.70
2016,10,11,05,47,1.70
2016,10,11,05,48,1.70
2016,10,11,05,49,1.70
2016,10,11,05,50,1.80
2016,10,11,05,51,1.80
2016,10,11,05,52,1.80
2016,10,11,05,53,1.80
2016,10,11,05,54,1.80
2016,10,11,05,55,1.80
2016,10,11,05,56,1.80
2016,10,11,05,57,1.80
2016,10,11,05,58,1.80
2016,10,11,05,59,1.80
2016,10,11,06,00,1.80
2016,10,11,06,01,1.80
2016,10,11,06,02,1.80
2016,10,11,06,03,1.80
2016,10,11,06,04,1.80
2016,10,11,06,05,1.80
2016,10,11,06,06,1.80
2016,10,11,06,07,1.80
2016,10,11,06,08,1.80
2016,10,11,06,09,1.80
2016,10,11,06,10,1.80
2016,10,11,06,11,1.80
2016,10,11,06,12,1.80
2016,10,11,06,13,1.80
2016,10,11,06,14,1.80
2016,10,11,06,15,1.80
2016,10,11,06,16,1.80
2016,10,11,06,17,1.80
2016,10,11,06,18,1.80
2016,10,11,06,19,1.70
2016,10,11,06,20,1.70
2016,10,11,06,21,1.70
2016,10,11,06,22,1.60
2016,10,11,06,23,1.70
2016,10,11,06,24,1.60
2016,10,11,06,25,1.60
2016,10,11,06,26,1.60
2016,10,11,06,27,1.60
2016,10,11,06,28,1.60
2016,10,11,06,29,1.60
2016,10,11,06,30,1.60
2016,10,11,06,31,1.60
2016,10,11,06,32,1.60
2016,10,11,06,33,1.60
2016,10,11,06,34,1.60
2016,10,11,06,35,1.60
2016,10,11,06,36,1.60
2016,10,11,06,37,1.60
2016,10,11,06,38,1.60
2016,10,11,06,39,1.60
2016,10,11,06,40,1.60
2016,10,11,06,41,1.50
2016,10,11,06,42,1.50
2016,10,11,06,43,1.40
2016,10,11,06,44,1.40
2016,10,11,06,45,1.40
2016,10,11,06,46,1.30
2016,10,11,06,47,1.40
2016,10,11,06,48,1.30
2016,10,11,06,49,1.30
2016,10,11,06,50,1.30
2016,10,11,06,51,1.30
2016,10,11,06,52,1.40
2016,10,11,06,53,1.50
2016,10,11,06,54,1.50
2016,10,11,06,55,1.60
2016,10,11,06,56,1.60
2016,10,11,06,57,1.60
2016,10,11,06,58,1.60
2016,10,11,06,59,1.60
2016,10,11,07,00,1.60
2016,10,11,07,01,1.70
2016,10,11,07,02,1.80
2016,10,11,07,03,1.90
2016,10,11,07,04,1.90
2016,10,11,07,05,1.90
2016,10,11,07,06,1.90
2016,10,11,07,07,1.90
2016,10,11,07,08,1.80
2016,10,11,07,09,1.80
2016,10,11,07,10,1.70
2016,10,11,07,11,1.70
2016,10,11,07,12,1.60
2016,10,11,07,13,1.60
2016,10,11,07,14,1.60
2016,10,11,07,15,1.60
2016,10,11,07,16,1.70
2016,10,11,07,17,1.70
2016,10,11,07,18,1.80
2016,10,11,07,19,1.80
2016,10,11,07,20,1.80
2016,10,11,07,21,1.80
2016,10,11,07,22,1.90
2016,10,11,07,23,1.90
2016,10,11,07,24,1.90
2016,10,11,07,25,1.90
2016,10,11,07,26,1.80
2016,10,11,07,27,1.80
2016,10,11,07,28,1.90
2016,10,11,07,29,1.80
2016,10,11,07,30,1.80
2016,10,11,07,31,1.80
2016,10,11,07,32,1.80
2016,10,11,07,33,1.80
2016,10,11,07,34,1.80
2016,10,11,07,35,1.80
2016,10,11,07,36,1.80
2016,10,11,07,37,1.80
2016,10,11,07,38,1.80
2016,10,11,07,39,1.90
2016,10,11,07,40,1.90
2016,10,11,07,41,1.90
2016,10,11,07,42,1.90
2016,10,11,07,43,1.90
2016,10,11,07,44,1.90
2016,10,11,07,45,1.90
2016,10,11,07,46,1.90
2016,10,11,07,47,1.80
2016,10,11,07,48,1.90
2016,10,11,07,49,1.90
2016,10,11,07,50,1.90
2016,10,11,07,51,2.00
2016,10,11,07,52,2.10
2016,10,11,07,53,2.20
2016,10,11,07,54,2.20
2016,10,11,07,55,2.20
2016,10,11,07,56,2.20
2016,10,11,07,57,2.30
2016,10,11,07,58,2.30
2016,10,11,07,59,2.40
2016,10,11,08,00,2.50
2016,10,11,08,01,2.60
2016,10,11,08,02,2.70
2016,10,11,08,03,2.70
2016,10,11,08,04,2.70
2016,10,11,08,05,2.70
2016,10,11,08,06,2.70
2016,10,11,08,07,2.70
2016,10,11,08,08,2.80
2016,10,11,08,09,2.90
2016,10,11,08,10,3.00
2016,10,11,08,11,3.20
2016,10,11,08,12,3.30
2016,10,11,08,13,3.30
2016,10,11,08,14,3.20
2016,10,11,08,15,3.20
2016,10,11,08,16,3.20
2016,10,11,08,17,3.30
2016,10,11,08,18,3.40
2016,10,11,08,19,3.50
2016,10,11,08,20,3.60
2016,10,11,08,21,3.60
2016,10,11,08,22,3.60
2016,10,11,08,23,3.50
2016,10,11,08,24,3.50
2016,10,11,08,25,3.40
2016,10,11,08,26,3.30
2016,10,11,08,27,3.20
2016,10,11,08,28,3.20
2016,10,11,08,29,3.10
2016,10,11,08,30,3.10
2016,10,11,08,31,3.20
2016,10,11,08,32,3.20
2016,10,11,08,33,3.20
2016,10,11,08,34,3.10
2016,10,11,08,35,3.10
2016,10,11,08,36,3.10
2016,10,11,08,37,3.00
2016,10,11,08,38,3.00
2016,10,11,08,39,3.00
2016,10,11,08,40,3.00
2016,10,11,08,41,3.10
2016,10,11,08,42,3.20
2016,10,11,08,43,3.30
2016,10,11,08,44,3.40
2016,10,11,08,45,3.50
2016,10,11,08,46,3.70
2016,10,11,08,47,3.80
2016,10,11,08,48,3.80
2016,10,11,08,49,3.80
2016,10,11,08,50,3.90
2016,10,11,08,51,3.90
2016,10,11,08,52,3.90
2016,10,11,08,53,4.00
2016,10,11,08,54,4.00
2016,10,11,08,55,4.10
2016,10,11,08,56,4.10
2016,10,11,08,57,4.20
2016,10,11,08,58,4.20
2016,10,11,08,59,4.30
2016,10,11,09,00,4.30
2016,10,11,09,01,4.30
2016,10,11,09,02,4.40
2016,10,11,09,03,4.40
2016,10,11,09,04,4.50
2016,10,11,09,05,4.60
2016,10,11,09,06,4.60
2016,10,11,09,07,4.70
2016,10,11,09,08,4.70
2016,10,11,09,09,4.80
2016,10,11,09,10,4.80
2016,10,11,09,11,4.90
2016,10,11,09,12,5.00
2016,10,11,09,13,5.10
2016,10,11,09,14,5.20
2016,10,11,09,15,5.30
2016,10,11,09,16,5.30
2016,10,11,09,17,5.40
2016,10,11,09,18,5.50
2016,10,11,09,19,5.60
2016,10,11,09,20,5.70
2016,10,11,09,21,5.70
2016,10,11,09,22,5.90
2016,10,11,09,23,6.00
2016,10,11,09,24,6.10
2016,10,11,09,25,6.20
2016,10,11,09,26,6.30
2016,10,11,09,27,6.30
2016,10,11,09,28,6.30
2016,10,11,09,29,6.50
2016,10,11,09,30,6.60
2016,10,11,09,31,6.70
2016,10,11,09,32,6.70
2016,10,11,09,33,6.70
2016,10,11,09,34,6.80
2016,10,11,09,35,6.90
2016,10,11,09,36,7.00
2016,10,11,09,37,7.10
2016,10,11,09,38,7.20
2016,10,11,09,39,7.20
2016,10,11,09,40,7.30
2016,10,11,09,41,7.40
2016,10,11,09,42,7.40
2016,10,11,09,43,7.50
2016,10,11,09,44,7.60
2016,10,11,09,45,7.60
2016,10,11,09,46,7.70
2016,10,11,09,47,7.70
2016,10,11,09,48,7.80
2016,10,11,09,49,7.80
2016,10,11,09,50,7.90
2016,10,11,09,51,7.90
2016,10,11,09,52,7.90
2016,10,11,09,53,7.90
2016,10,11,09,54,8.00
2016,10,11,09,55,8.10
2016,10,11,09,56,8.10
2016,10,11,09,57,8.20
2016,10,11,09,58,8.30
2016,10,11,09,59,8.30
2016,10,11,10,00,8.40
2016,10,11,10,01,8.40
2016,10,11,10,02,8.50
2016,10,11,10,03,8.50
2016,10,11,10,04,8.60
2016,10,11,10,05,8.60
2016,10,11,10,06,8.60
2016,10,11,10,07,8.70
2016,10,11,10,08,8.80
2016,10,11,10,09,8.80
2016,10,11,10,10,8.90
2016,10,11,10,11,8.90
2016,10,11,10,12,9.00
2016,10,11,10,13,9.10
2016,10,11,10,14,9.10
2016,10,11,10,15,9.10
2016,10,11,10,16,9.20
2016,10,11,10,17,9.30
2016,10,11,10,18,9.30
2016,10,11,10,19,9.50
2016,10,11,10,20,9.60
2016,10,11,10,21,9.70
2016,10,11,10,22,9.80
2016,10,11,10,23,9.80
2016,10,11,10,24,10.00
2016,10,11,10,25,10.10
2016,10,11,10,26,10.20
2016,10,11,10,27,10.30
2016,10,11,10,28,10.40
2016,10,11,10,29,10.40
2016,10,11,10,30,10.60
2016,10,11,10,31,10.70
2016,10,11,10,32,10.70
2016,10,11,10,33,10.80
2016,10,11,10,34,10.80
2016,10,11,10,35,10.80
2016,10,11,10,36,10.70
2016,10,11,10,37,10.70
2016,10,11,10,38,10.50
2016,10,11,10,39,10.50
2016,10,11,10,40,10.40
2016,10,11,10,41,10.40
2016,10,11,10,42,10.50
2016,10,11,10,43,10.60
2016,10,11,10,44,10.60
2016,10,11,10,45,10.70
2016,10,11,10,46,10.60
2016,10,11,10,47,10.60
2016,10,11,10,48,10.60
2016,10,11,10,49,10.60
2016,10,11,10,50,10.50
2016,10,11,10,51,10.40
2016,10,11,10,52,10.30
2016,10,11,10,53,10.30
2016,10,11,10,54,10.20
2016,10,11,10,55,10.20
2016,10,11,10,56,10.20
2016,10,11,10,57,10.20
2016,10,11,10,58,10.20
2016,10,11,10,59,10.10
2016,10,11,11,00,10.10
2016,10,11,11,01,10.10
2016,10,11,11,02,10.20
2016,10,11,11,03,10.20
2016,10,11,11,04,10.20
2016,10,11,11,05,10.20
2016,10,11,11,06,10.30
2016,10,11,11,07,10.30
2016,10,11,11,08,10.30
2016,10,11,11,09,10.30
2016,10,11,11,10,10.30
2016,10,11,11,11,10.30
2016,10,11,11,12,10.30
2016,10,11,11,13,10.20
2016,10,11,11,14,10.20
2016,10,11,11,15,10.20
2016,10,11,11,16,10.20
2016,10,11,11,17,10.10
2016,10,11,11,18,10.10
2016,10,11,11,19,10.10
2016,10,11,11,20,10.10
2016,10,11,11,21,10.10
2016,10,11,11,22,10.20
2016,10,11,11,23,10.20
2016,10,11,11,24,10.20
2016,10,11,11,25,10.20
2016,10,11,11,26,10.20
2016,10,11,11,27,10.20
2016,10,11,11,28,10.10
2016,10,11,11,29,10.20
2016,10,11,11,30,10.20
2016,10,11,11,31,10.30
2016,10,11,11,32,10.20
2016,10,11,11,33,10.20
2016,10,11,11,34,10.20
2016,10,11,11,35,10.20
2016,10,11,11,36,10.20
2016,10,11,11,37,10.20
2016,10,11,11,38,10.20
2016,10,11,11,39,10.30
2016,10,11,11,40,10.30
2016,10,11,11,41,10.30
2016,10,11,11,42,10.30
2016,10,11,11,43,10.30
2016,10,11,11,44,10.30
2016,10,11,11,45,10.30
2016,10,11,11,46,10.30
2016,10,11,11,47,10.30
2016,10,11,11,48,10.40
2016,10,11,11,49,10.40
2016,10,11,11,50,10.30
2016,10,11,11,51,10.30
2016,10,11,11,52,10.30
2016,10,11,11,53,10.30
2016,10,11,11,54,10.30
2016,10,11,11,55,10.40
2016,10,11,11,56,10.40
2016,10,11,11,57,10.50
2016,10,11,11,58,10.60
2016,10,11,11,59,10.60
2016,10,11,12,00,10.60
2016,10,11,12,01,10.60
2016,10,11,12,02,10.60
2016,10,11,12,03,10.50
2016,10,11,12,04,10.50
2016,10,11,12,05,10.60
2016,10,11,12,06,10.60
2016,10,11,12,07,10.60
2016,10,11,12,08,10.60
2016,10,11,12,09,10.50
2016,10,11,12,10,10.50
2016,10,11,12,11,10.50
2016,10,11,12,12,10.50
2016,10,11,12,13,10.60
2016,10,11,12,14,10.70
2016,10,11,12,15,10.70
2016,10,11,12,16,10.70
2016,10,11,12,17,10.60
2016,10,11,12,18,10.60
2016,10,11,12,19,10.50
2016,10,11,12,20,10.50
2016,10,11,12,21,10.50
2016,10,11,12,22,10.40
2016,10,11,12,23,10.30
2016,10,11,12,24,10.20
2016,10,11,12,25,10.10
2016,10,11,12,26,10.10
2016,10,11,12,27,10.10
2016,10,11,12,28,10.10
2016,10,11,12,29,10.10
2016,10,11,12,30,10.10
2016,10,11,12,31,10.20
2016,10,11,12,32,10.20
2016,10,11,12,33,10.20
2016,10,11,12,34,10.30
2016,10,11,12,35,10.30
2016,10,11,12,36,10.30
2016,10,11,12,37,10.30
2016,10,11,12,38,10.30
2016,10,11,12,39,10.30
2016,10,11,12,40,10.30
2016,10,11,12,41,10.20
2016,10,11,12,42,10.20
2016,10,11,12,43,10.20
2016,10,11,12,44,10.30
2016,10,11,12,45,10.40
2016,10,11,12,46,10.40
2016,10,11,12,47,10.60
2016,10,11,12,48,10.50
2016,10,11,12,49,10.50
2016,10,11,12,50,10.40
2016,10,11,12,51,10.40
2016,10,11,12,52,10.30
2016,10,11,12,53,10.40
2016,10,11,12,54,10.40
2016,10,11,12,55,10.50
2016,10,11,12,56,10.50
2016,10,11,12,57,10.60
2016,10,11,12,58,10.60
2016,10,11,12,59,10.60
2016,10,11,13,00,10.70
2016,10,11,13,01,10.70
2016,10,11,13,02,10.70
2016,10,11,13,03,10.70
2016,10,11,13,04,10.60
2016,10,11,13,05,10.60
2016,10,11,13,06,10.60
2016,10,11,13,07,10.50
2016,10,11,13,08,10.50
2016,10,11,13,09,10.50
2016,10,11,13,10,10.60
2016,10,11,13,11,10.60
2016,10,11,13,12,10.60
2016,10,11,13,13,10.60
2016,10,11,13,14,10.50
2016,10,11,13,15,10.40
2016,10,11,13,16,10.40
2016,10,11,13,17,10.40
2016,10,11,13,18,10.40
2016,10,11,13,19,10.30
2016,10,11,13,20,10.30
2016,10,11,13,21,10.20
2016,10,11,13,22,10.20
2016,10,11,13,23,10.20
2016,10,11,13,24,10.20
2016,10,11,13,25,10.20
2016,10,11,13,26,10.20
2016,10,11,13,27,10.20
2016,10,11,13,28,10.30
2016,10,11,13,29,10.30
2016,10,11,13,30,10.30
2016,10,11,13,31,10.40
2016,10,11,13,32,10.50
2016,10,11,13,33,10.50
2016,10,11,13,34,10.40
2016,10,11,13,35,10.40
2016,10,11,13,36,10.40
2016,10,11,13,37,10.40
2016,10,11,13,38,10.40
2016,10,11,13,39,10.50
2016,10,11,13,40,10.60
2016,10,11,13,41,10.60
2016,10,11,13,42,10.60
2016,10,11,13,43,10.60
2016,10,11,13,44,10.60
2016,10,11,13,45,10.60
2016,10,11,13,46,10.70
2016,10,11,13,47,10.70
2016,10,11,13,48,10.70
2016,10,11,13,49,10.70
2016,10,11,13,50,10.60
2016,10,11,13,51,10.60
2016,10,11,13,52,10.60
2016,10,11,13,53,10.70
2016,10,11,13,54,10.80
2016,10,11,13,55,10.80
2016,10,11,13,56,10.70
2016,10,11,13,57,10.80
2016,10,11,13,58,10.80
2016,10,11,13,59,10.80
2016,10,11,14,00,10.80
2016,10,11,14,01,10.70
2016,10,11,14,02,10.70
2016,10,11,14,03,10.70
2016,10,11,14,04,10.70
2016,10,11,14,05,10.70
2016,10,11,14,06,10.80
2016,10,11,14,07,10.80
2016,10,11,14,08,10.80
2016,10,11,14,09,10.80
2016,10,11,14,10,10.80
2016,10,11,14,11,10.80
2016,10,11,14,12,10.80
2016,10,11,14,13,10.80
2016,10,11,14,14,10.90
2016,10,11,14,15,10.90
2016,10,11,14,16,11.00
2016,10,11,14,17,11.00
2016,10,11,14,18,11.00
2016,10,11,14,19,11.00
2016,10,11,14,20,11.00
2016,10,11,14,21,11.00
2016,10,11,14,22,10.90
2016,10,11,14,23,10.80
2016,10,11,14,24,10.80
2016,10,11,14,25,10.70
2016,10,11,14,26,10.70
2016,10,11,14,27,10.80
2016,10,11,14,28,10.80
2016,10,11,14,29,10.90
2016,10,11,14,30,10.90
2016,10,11,14,31,10.90
2016,10,11,14,32,10.90
2016,10,11,14,33,10.90
2016,10,11,14,34,11.00
2016,10,11,14,35,11.00
2016,10,11,14,36,10.90
2016,10,11,14,37,10.90
2016,10,11,14,38,10.90
2016,10,11,14,39,10.90
2016,10,11,14,40,10.80
2016,10,11,14,41,10.80
2016,10,11,14,42,10.80
2016,10,11,14,43,10.80
2016,10,11,14,44,10.80
2016,10,11,14,45,10.90
2016,10,11,14,46,10.90
2016,10,11,14,47,10.90
2016,10,11,14,48,10.90
2016,10,11,14,49,10.90
2016,10,11,14,50,10.90
2016,10,11,14,51,10.90
2016,10,11,14,52,10.90
2016,10,11,14,53,10.90
2016,10,11,14,54,10.90
2016,10,11,14,55,10.90
2016,10,11,14,56,10.90
2016,10,11,14,57,10.90
2016,10,11,14,58,11.00
2016,10,11,14,59,11.00
2016,10,11,15,00,10.90
2016,10,11,15,01,10.90
2016,10,11,15,02,10.90
2016,10,11,15,03,10.90
2016,10,11,15,04,10.90
2016,10,11,15,05,10.80
2016,10,11,15,06,10.80
2016,10,11,15,07,10.80
2016,10,11,15,08,10.90
2016,10,11,15,09,11.00
2016,10,11,15,10,11.10
2016,10,11,15,11,11.10
2016,10,11,15,12,11.20
2016,10,11,15,13,11.30
2016,10,11,15,14,11.30
2016,10,11,15,15,11.40
2016,10,11,15,16,11.40
2016,10,11,15,17,11.30
2016,10,11,15,18,11.30
2016,10,11,15,19,11.30
2016,10,11,15,20,11.30
2016,10,11,15,21,11.30
2016,10,11,15,22,11.30
2016,10,11,15,23,11.30
2016,10,11,15,24,11.20
2016,10,11,15,25,11.30
2016,10,11,15,26,11.30
2016,10,11,15,27,11.30
2016,10,11,15,28,11.30
2016,10,11,15,29,11.20
2016,10,11,15,30,11.20
2016,10,11,15,31,11.10
2016,10,11,15,32,11.10
2016,10,11,15,33,11.20
2016,10,11,15,34,11.20
2016,10,11,15,35,11.20
2016,10,11,15,36,11.20
2016,10,11,15,37,11.20
2016,10,11,15,38,11.10
2016,10,11,15,39,11.20
2016,10,11,15,40,11.20
2016,10,11,15,41,11.30
2016,10,11,15,42,11.30
2016,10,11,15,43,11.40
2016,10,11,15,44,11.40
2016,10,11,15,45,11.40
2016,10,11,15,46,11.40
2016,10,11,15,47,11.40
2016,10,11,15,48,11.40
2016,10,11,15,49,11.40
2016,10,11,15,50,11.40
2016,10,11,15,51,11.50
2016,10,11,15,52,11.50
2016,10,11,15,53,11.60
2016,10,11,15,54,11.60
2016,10,11,15,55,11.60
2016,10,11,15,56,11.60
2016,10,11,15,57,11.60
2016,10,11,15,58,11.60
2016,10,11,15,59,11.60
2016,10,11,16,00,11.60
2016,10,11,16,01,11.60
2016,10,11,16,02,11.60
2016,10,11,16,03,11.50
2016,10,11,16,04,11.50
2016,10,11,16,05,11.40
2016,10,11,16,06,11.40
2016,10,11,16,07,11.40
2016,10,11,16,08,11.40
2016,10,11,16,09,11.40
2016,10,11,16,10,11.40
2016,10,11,16,11,11.40
2016,10,11,16,12,11.40
2016,10,11,16,13,11.40
2016,10,11,16,14,11.40
2016,10,11,16,15,11.40
2016,10,11,16,16,11.40
2016,10,11,16,17,11.50
2016,10,11,16,18,11.60
2016,10,11,16,19,11.60
2016,10,11,16,20,11.60
2016,10,11,16,21,11.60
2016,10,11,16,22,11.60
2016,10,11,16,23,11.70
2016,10,11,16,24,11.70
2016,10,11,16,25,11.70
2016,10,11,16,26,11.80
2016,10,11,16,27,11.80
2016,10,11,16,28,11.70
2016,10,11,16,29,11.70
2016,10,11,16,30,11.70
2016,10,11,16,31,11.70
2016,10,11,16,32,11.70
2016,10,11,16,33,11.70
2016,10,11,16,34,11.70
2016,10,11,16,35,11.70
2016,10,11,16,36,11.70
2016,10,11,16,37,11.80
2016,10,11,16,38,11.80
2016,10,11,16,39,11.80
2016,10,11,16,40,11.80
2016,10,11,16,41,11.80
2016,10,11,16,42,11.80
2016,10,11,16,43,11.80
2016,10,11,16,44,11.80
2016,10,11,16,45,11.80
2016,10,11,16,46,11.80
2016,10,11,16,47,11.80
2016,10,11,16,48,11.80
2016,10,11,16,49,11.80
2016,10,11,16,50,11.80
2016,10,11,16,51,11.80
2016,10,11,16,52,11.80
2016,10,11,16,53,11.80
2016,10,11,16,54,11.80
2016,10,11,16,55,11.80
2016,10,11,16,56,11.90
2016,10,11,16,57,11.90
2016,10,11,16,58,11.90
2016,10,11,16,59,12.00
2016,10,11,17,00,12.00
2016,10,11,17,01,12.00
2016,10,11,17,02,12.00
2016,10,11,17,03,12.00
2016,10,11,17,04,12.00
2016,10,11,17,05,12.00
2016,10,11,17,06,11.90
2016,10,11,17,07,11.90
2016,10,11,17,08,11.90
2016,10,11,17,09,11.90
2016,10,11,17,10,11.90
2016,10,11,17,11,11.90
2016,10,11,17,12,11.90
2016,10,11,17,13,11.90
2016,10,11,17,14,11.90
2016,10,11,17,15,11.90
2016,10,11,17,16,11.90
2016,10,11,17,17,11.90
2016,10,11,17,18,11.90
2016,10,11,17,19,11.90
2016,10,11,17,20,11.90
2016,10,11,17,21,11.90
2016,10,11,17,22,11.90
2016,10,11,17,23,11.80
2016,10,11,17,24,11.80
2016,10,11,17,25,11.80
2016,10,11,17,26,11.80
2016,10,11,17,27,11.80
2016,10,11,17,28,11.70
2016,10,11,17,29,11.70
2016,10,11,17,30,11.70
2016,10,11,17,31,11.70
2016,10,11,17,32,11.70
2016,10,11,17,33,11.70
2016,10,11,17,34,11.70
2016,10,11,17,35,11.70
2016,10,11,17,36,11.70
2016,10,11,17,37,11.70
2016,10,11,17,38,11.70
2016,10,11,17,39,11.70
2016,10,11,17,40,11.70
2016,10,11,17,41,11.60
2016,10,11,17,42,11.60
2016,10,11,17,43,11.60
2016,10,11,17,44,11.50
2016,10,11,17,45,11.50
2016,10,11,17,46,11.40